STARLINK-37128, 68385

Orbit data source: Space-Track

STARLINK-37128, 68385 is a payload satellite owned by SpaceX/Seattle (US) in SSO that was launched on Thu, 26 Mar 2026 UTC via an FALCON 9 launch vehicle from the Air Force Western Test Range (AFWTR). Payload-class satellites include a variety of spacecraft equipped with specific instruments for various scientific and technological missions. These include communications satellites like Starlink; space stations such as the ISS; scientific satellites like the Hubble; Earth observation satellites from companies like Planet Labs, Umbra, and HawkEye 360; GPS; miniature CubeSats for education and research; and military/defense satellites.

Loading next visibility...
Identifier
68385, 2026-063F
Orbit
SSO
Country
Flag of USUS
Related business
Manufacturer
SpaceX/Seattle
Mission
Operational spacecraft
Bus & Motor
STARLINK V2MO, Unknown motor
Mass
575 kg wet, ~530 kg dry
Launch date (UTC)
2026-03-26 (3 months ago)
Launch vehicle
FALCON 9
Launch site
Air Force Western Test Range (AFWTR)
Object type
Payload
Rocket body
Debris
Shape & HBR
Unknown shape, 17.7 m
Radar Cross Section
Large (>1 m²)

Expand to show TLE details & history
Last TLE update: 11 hours ago

TLE from 11 hours ago
0 STARLINK-37128
1 68385U 26063F   26165.65190730  .00018057  00000-0  56027-3 0  9992
2 68385  97.2881 307.9027 0000692 108.9629 251.1689 15.33447189 12759
Epoch: 2026-06-14T15:38Z
TLE epoch observation values (Epoch: 2026-06-14T15:38:44.790Z)
Latitude
-0.00002°
Longitude
170.2665°
Altitude
468.802 km
Speed
7.632 km/s
True Right ascension
20h 31m 36s
True Declination
0° 00' 00"
Sunlit
Object was in full shadow at epoch
Visualization orbit readout
Latitude
Unknown
Longitude
Unknown
Altitude
Unknown
Speed
Unknown
Apparent Right ascension
Unknown
Apparent Declination
Unknown
Sunlit
N/A
Visualization observer readout
Local Sidereal Time
12:59:44
Azimuth
Unknown
Elevation
Unknown
Doppler factor
Unknown
Orbital elements
Apogee altitude
462.953 km
Perigee altitude
462.006 km
Semi-major axis
6,840.617 km
Eccentricity
0.00007
Inclination
97.2881°
RAAN
307.9027°
Arg. of periapsis
108.9629°
True anomaly
251.16139°
Mean anomaly
251.1689°
Eccentric anomaly
251.16515°
Mean motion
3.83619 °/min
Orbital period
93.84 mins
BSTAR
0.00056027
Loading maneuver chart data...
Computing Atmospheric mass density...
Loading historical data...
Loading historical data...
Loading historical data...
Loading historical data...
Loading historical data...
Loading historical data...
Loading historical data...

Documentation

Showing up to 5 results
|